EW5226 Weather Reports


Display with metric or nautical units.
time (UTC)temp
F
wind
direction
speed
MPH
gust
MPH
rain 1hr
in
rain 24hr
in
rain mn
in
humidity
%
barometer
mb
20260507193032 93 321 2.0 6.0 0.00 0.00 0.00 34 1014.9
20260507191525 94 293 0.0 3.0 0.00 0.00 0.00 34 1015.0
20260507190024 93 299 1.0 6.0 0.00 0.00 0.00 33 1015.1
20260507184524 93 285 1.0 6.0 0.00 0.00 0.00 34 1015.2
20260507183036 93 229 0.0 7.0 0.00 0.00 0.00 40 1015.2
20260507181521 94 249 0.0 4.0 0.00 0.00 0.00 40 1015.6
20260507180019 91 314 0.0 6.0 0.00 0.00 0.00 37 1015.7
20260507174519 90 165 2.0 10.0 0.00 0.00 0.00 39 1016.0
20260507173016 91 229 2.0 6.0 0.00 0.00 0.00 39 1016.0
20260507171514 91 257 1.0 8.0 0.00 0.00 0.00 41 1015.9
20260507170011 90 41 3.0 8.0 0.00 0.00 0.00 44 1015.8
20260507164511 89 204 1.0 6.0 0.00 0.00 0.00 49 1015.9
20260507163011 89 227 1.0 8.0 0.00 0.00 0.00 52 1016.1
20260507161512 90 180 1.0 8.0 0.00 0.00 0.00 54 1016.1
20260507160018 89 136 1.0 5.0 0.00 0.00 0.00 53 1016.4
20260507154506 90 257 0.0 4.0 0.00 0.00 0.00 54 1016.4
20260507153006 89 179 2.0 11.0 0.00 0.00 0.00 51 1016.6
20260507151502 87 256 1.0 8.0 0.00 0.00 0.00 47 1016.8
20260507144557 86 23 0.0 4.0 0.00 0.00 0.00 57 1016.7
20260507143057 86 237 0.0 5.0 0.00 0.00 0.00 61 1016.5
20260507141558 86 264 0.0 3.0 0.00 0.00 0.00 62 1016.5
20260507134549 83 112 0.0 2.0 0.00 0.00 0.00 71 1016.5
20260507133046 82 210 0.0 2.0 0.00 0.00 0.00 73 1016.6
20260507131543 81 172 0.0 1.0 0.00 0.00 0.00 77 1016.3
20260507130049 79 240 0.0 1.0 0.00 0.00 0.00 80 1016.3
20260507124548 76 257 0.0 3.0 0.00 0.00 0.00 84 1016.1
20260507123032 75 32 0.0 3.0 0.00 0.00 0.00 88 1015.8
20260507121529 74 271 0.0 1.0 0.00 0.00 0.00 93 1016.0
20260507120027 73 93 0.0 0.0 0.00 0.00 0.00 95 1016.0
20260507114528 72 94 0.0 0.0 0.00 0.00 0.00 96 1016.0
20260507113023 69 93 0.0 0.0 0.00 0.00 0.00 96 1015.7
20260507111521 67 93 0.0 0.0 0.00 0.00 0.00 96 1015.7
20260507110028 66 93 0.0 0.0 0.00 0.00 0.00 96 1015.5
20260507104520 66 93 0.0 0.0 0.00 0.00 0.00 96 1015.2
20260507103019 67 93 0.0 0.0 0.00 0.00 0.00 96 1015.3
20260507101519 67 93 0.0 0.0 0.00 0.00 0.00 96 1015.2
20260507100023 67 93 0.0 0.0 0.00 0.00 0.00 96 1015.1
20260507094517 66 93 0.0 0.0 0.00 0.00 0.00 95 1014.9
20260507093024 67 94 0.0 0.0 0.00 0.00 0.00 96 1015.0
20260507091521 67 94 0.0 0.0 0.00 0.00 0.00 95 1014.8
20260507090013 67 93 0.0 0.0 0.00 0.00 0.00 95 1014.9
20260507084518 67 93 0.0 0.0 0.00 0.00 0.00 95 1014.9
20260507083011 68 93 0.0 0.0 0.00 0.00 0.00 95 1015.1
20260507081511 68 93 0.0 0.0 0.00 0.00 0.00 95 1015.0
20260507080009 68 93 0.0 0.0 0.00 0.00 0.00 95 1014.9
20260507074509 68 93 0.0 0.0 0.00 0.00 0.00 95 1014.6
20260507073007 68 93 0.0 0.0 0.00 0.00 0.00 95 1014.7
20260507071504 68 93 0.0 0.0 0.00 0.00 0.00 95 1014.9
20260507070002 69 94 0.0 0.0 0.00 0.00 0.00 95 1015.3
20260507064613 69 93 0.0 0.0 0.00 0.00 0.00 95 1015.4
20260507063101 70 93 0.0 0.0 0.00 0.00 0.00 95 1015.4
20260507061558 70 94 0.0 0.0 0.00 0.00 0.00 95 1015.4
20260507060057 70 93 0.0 0.0 0.00 0.00 0.00 94 1015.6
20260507054555 70 93 0.0 0.0 0.00 0.00 0.00 94 1015.9
20260507053053 70 93 0.0 0.0 0.00 0.00 0.00 94 1016.0
20260507051554 70 93 0.0 0.0 0.00 0.00 0.00 94 1016.1
20260507050048 71 93 0.0 0.0 0.00 0.00 0.00 94 1016.2
20260507044546 71 94 0.0 0.0 0.00 0.00 0.00 94 1016.4
20260507043044 71 93 0.0 0.0 0.00 0.00 0.00 94 1016.5
20260507041544 71 93 0.0 1.0 0.00 0.00 0.00 93 1016.7
20260507040040 72 79 0.0 1.0 0.00 0.00 0.00 93 1016.8
20260507034541 72 79 0.0 0.0 0.00 0.00 0.00 93 1016.6
20260507033042 72 78 0.0 1.0 0.00 0.00 0.00 93 1016.5
20260507031539 72 75 0.0 1.0 0.00 0.00 0.00 92 1016.7
20260507030041 73 65 0.0 0.0 0.00 0.00 0.00 92 1016.2
20260507024539 73 65 0.0 0.0 0.00 0.00 0.00 91 1016.3
20260507023038 74 65 0.0 1.0 0.00 0.00 0.00 91 1016.2
20260507021538 74 8 0.0 1.0 0.00 0.00 0.00 90 1016.2
20260507020042 74 48 0.0 2.0 0.00 0.00 0.00 91 1016.1
20260507014538 75 27 0.0 2.0 0.00 0.00 0.00 90 1016.1
20260507013047 75 124 0.0 0.0 0.00 0.00 0.00 90 1016.2
20260507011534 75 124 0.0 1.0 0.00 0.00 0.00 89 1016.0
20260507010037 76 302 0.0 2.0 0.00 0.00 0.00 87 1016.0
20260507004533 76 30 0.0 0.0 0.00 0.00 0.00 86 1015.9
20260507003032 77 30 0.0 1.0 0.00 0.00 0.00 84 1015.6
20260507001533 79 68 0.0 1.0 0.00 0.00 0.00 82 1015.6
20260507000031 80 63 0.0 2.0 0.00 0.00 0.00 79 1015.5
20260506234536 81 149 0.0 1.0 0.00 0.00 0.00 77 1015.4
20260506233049 83 278 0.0 2.0 0.00 0.00 0.00 72 1015.4
20260506231531 86 344 0.0 2.0 0.00 0.00 0.00 71 1015.3
20260506230029 88 307 0.0 1.0 0.00 0.00 0.00 66 1015.2
20260506224529 89 299 0.0 3.0 0.00 0.00 0.00 67 1015.1
20260506223028 89 305 2.0 9.0 0.00 0.00 0.00 66 1015.0
20260506221528 93 316 0.0 3.0 0.00 0.00 0.00 59 1015.0
20260506220029 93 79 0.0 3.0 0.00 0.00 0.00 59 1015.0
20260506214526 93 222 2.0 6.0 0.00 0.00 0.00 54 1014.9
20260506213026 93 13 0.0 3.0 0.00 0.00 0.00 49 1015.0
20260506211527 94 351 1.0 5.0 0.00 0.00 0.00 49 1015.1
20260506210031 93 251 1.0 4.0 0.00 0.00 0.00 50 1015.0
20260506204523 92 245 0.0 7.0 0.00 0.00 0.00 53 1015.0
20260506203021 93 313 0.0 4.0 0.00 0.00 0.00 47 1015.0
20260506201524 94 288 1.0 4.0 0.00 0.00 0.00 46 1015.1
20260506200034 93 358 0.0 7.0 0.00 0.00 0.00 47 1015.2
20260506194518 95 30 0.0 5.0 0.00 0.00 0.00 44 1015.2